Date String (YYYY-MM-DD hh:mm:ss) UTC,Instrument flags,absolute air pressure of the measurement (hPa),sample flow rate (lpm),inlet stack bypass flow (lpm),air temperature of the measurement (°C),ambient temperature measured by the external sensor (°C),aerosol sample conditioner tube jacket temperature (°C),OPC LED temperature (°C),internal box temperature (°C),relative humidity of the measurement (%),span deviation,mass concentration of particles derived from Lorenz-Mie calculation of OPC scattering (μg/m³),mass concentration of particles derived from Lorenz-Mie calculation of OPC scattering (μg/m³),mass concentration of particles derived from Lorenz-Mie calculation of OPC scattering (μg/m³)
DateTimeUTC,F1_M11,P_M11,Q1_M11,Q2_M11,T1_M11,T2_M11,T3_M11,T4_M11,T5_M11,U1_M11,ZSPAN_M11,X0_M11,X2_M11,X1_M11
2023-12-21 23:00:00,SystemResetWarning,0831.9,5.01,000.00,025.7,022.5,000.0,033.9,026.8,13.4,0000.0,0018.62,0005.98,0005.16
2023-12-21 23:01:00,SystemResetWarning,0831.9,5.01,000.00,025.6,022.8,000.0,033.8,026.7,13.1,0000.0,0018.57,0005.95,0005.18
2023-12-21 23:02:00,SystemResetWarning,0832.0,4.99,000.00,025.6,023.2,000.0,033.8,026.8,13.0,0000.0,0018.97,0005.97,0005.19
2023-12-21 23:03:00,SystemResetWarning,0832.0,4.98,000.00,025.6,023.6,000.0,033.8,026.9,12.9,0000.0,0017.51,0005.97,0005.19
2023-12-21 23:04:00,SystemResetWarning,0832.0,5.01,000.00,025.6,023.9,000.0,033.8,027.0,12.8,0000.0,0017.50,0005.95,0005.19
2023-12-21 23:05:00,SystemResetWarning,0832.0,5.01,000.00,025.6,024.1,000.0,033.8,027.1,12.9,0000.0,0018.32,0005.92,0005.18
2023-12-21 23:06:00,SystemResetWarning,0832.0,4.99,000.00,025.7,024.3,000.0,033.8,027.2,12.7,0000.0,0019.09,0005.90,0005.14
2023-12-21 23:07:00,SystemResetWarning,0832.0,5.00,000.00,025.7,024.5,000.0,033.8,027.3,12.4,0000.0,0017.83,0005.76,0005.00
2023-12-21 23:08:00,SystemResetWarning,0832.0,4.99,000.00,025.8,024.7,000.0,033.8,027.3,12.3,0000.0,0016.37,0005.53,0004.81
2023-12-21 23:09:00,SystemResetWarning,0832.0,5.00,000.00,025.8,024.8,000.0,033.8,027.4,12.3,0000.0,0015.71,0005.31,0004.61
2023-12-21 23:10:00,SystemResetWarning,0832.0,5.01,000.00,025.8,024.4,000.0,033.9,027.4,12.3,0000.0,0014.48,0005.02,0004.38
2023-12-21 23:11:00,SystemResetWarning,0832.0,5.00,000.00,025.8,022.6,000.0,033.9,027.2,12.3,0000.0,0013.67,0004.78,0004.18
2023-12-21 23:12:00,SystemResetWarning,0832.0,5.00,000.00,025.7,022.1,000.0,033.8,027.0,12.7,0000.0,0012.81,0004.51,0003.95
2023-12-21 23:13:00,SystemResetWarning,0832.0,5.01,000.00,025.5,022.4,000.0,033.8,026.5,12.9,0000.0,0011.32,0004.20,0003.67
2023-12-21 23:14:00,SystemResetWarning,0832.0,5.01,000.00,025.5,022.7,000.0,033.7,026.6,13.2,0000.0,0010.51,0003.85,0003.39
2023-12-21 23:15:00,SystemResetWarning,0832.0,5.00,000.00,025.4,023.1,000.0,033.7,026.7,13.4,0000.0,0009.40,0003.49,0003.08
2023-12-21 23:16:00,SystemResetWarning,0832.0,5.00,000.00,025.5,023.4,000.0,033.7,026.8,13.3,0000.0,0007.95,0003.18,0002.62
2023-12-21 23:17:00,SystemResetWarning,0832.0,5.01,000.00,025.5,023.7,000.0,033.7,026.9,13.3,0000.0,0005.99,0002.65,0002.12
2023-12-21 23:18:00,SystemResetWarning,0832.1,5.00,000.00,025.5,024.0,000.0,033.7,027.0,13.3,0000.0,0004.93,0002.31,0001.87
2023-12-21 23:19:00,SystemResetWarning,0832.1,5.01,000.00,025.5,024.2,000.0,033.7,027.1,13.2,0000.0,0005.06,0002.30,0001.83
2023-12-21 23:20:00,SystemResetWarning,0832.2,5.00,000.00,025.6,024.4,000.0,033.7,027.1,13.1,0000.0,0004.81,0002.28,0001.81
2023-12-21 23:21:00,SystemResetWarning,0832.2,5.00,000.00,025.6,024.5,000.0,033.7,027.2,12.7,0000.0,0006.36,0002.78,0002.18
2023-12-21 23:22:00,SystemResetWarning,0832.2,5.00,000.00,025.7,024.7,000.0,033.7,027.3,11.6,0000.0,0007.42,0003.20,0002.59
2023-12-21 23:23:00,SystemResetWarning,0832.2,5.02,000.00,025.7,024.8,000.0,033.7,027.3,11.5,0000.0,0007.74,0003.45,0002.97
2023-12-21 23:24:00,SystemResetWarning,0832.2,5.00,000.00,025.8,024.9,000.0,033.8,027.4,11.5,0000.0,0008.15,0003.69,0003.25
2023-12-21 23:25:00,SystemResetWarning,0832.2,5.00,000.00,025.8,025.0,000.0,033.8,027.4,11.5,0000.0,0008.85,0003.92,0003.45
2023-12-21 23:26:00,SystemResetWarning,0832.2,4.99,000.00,025.8,024.5,000.0,033.8,027.4,11.5,0000.0,0009.54,0004.21,0003.66
2023-12-21 23:27:00,SystemResetWarning,0832.2,5.00,000.00,025.8,022.6,000.0,033.8,027.2,11.6,0000.0,0009.72,0004.37,0003.82
2023-12-21 23:28:00,SystemResetWarning,0832.2,5.01,000.00,025.7,022.0,000.0,033.8,027.0,11.5,0000.0,0009.72,0004.41,0003.88
2023-12-21 23:29:00,SystemResetWarning,0832.2,5.00,000.00,025.5,022.3,000.0,033.7,026.5,11.6,0000.0,0010.09,0004.44,0003.90
2023-12-21 23:30:00,SystemResetWarning,0832.2,5.00,000.00,025.4,022.6,000.0,033.7,026.5,11.7,0000.0,0010.03,0004.38,0003.87
2023-12-21 23:31:00,SystemResetWarning,0832.2,5.01,000.00,025.4,023.0,000.0,033.7,026.6,11.7,0000.0,0009.48,0004.26,0003.78
2023-12-21 23:32:00,SystemResetWarning,0832.2,4.99,000.00,025.4,023.3,000.0,033.7,026.7,11.7,0000.0,0009.43,0003.95,0003.54
2023-12-21 23:33:00,SystemResetWarning,0832.2,4.99,000.00,025.4,023.6,000.0,033.6,026.8,11.7,0000.0,0008.85,0003.65,0003.28
2023-12-21 23:34:00,SystemResetWarning,0832.2,4.99,000.00,025.4,023.9,000.0,033.6,026.9,11.6,0000.0,0008.39,0003.34,0002.95
2023-12-21 23:35:00,SystemResetWarning,0832.2,5.01,000.00,025.4,024.1,000.0,033.6,026.9,11.5,0000.0,0007.79,0002.96,0002.46
2023-12-21 23:36:00,SystemResetWarning,0832.2,5.01,000.00,025.5,024.2,000.0,033.6,026.9,11.4,0000.0,0006.91,0002.56,0002.06
2023-12-21 23:37:00,SystemResetWarning,0832.3,4.99,000.00,025.5,024.4,000.0,033.7,027.0,11.5,0000.0,0005.66,0002.02,0001.67
2023-12-21 23:38:00,SystemResetWarning,0832.3,4.99,000.00,025.5,024.5,000.0,033.7,027.0,11.7,0000.0,0005.17,0001.68,0001.36
2023-12-21 23:39:00,SystemResetWarning,0832.3,5.00,000.00,025.6,024.6,000.0,033.7,027.1,11.7,0000.0,0005.01,0001.56,0001.24
2023-12-21 23:40:00,SystemResetWarning,0832.3,5.01,000.00,025.6,024.7,000.0,033.7,027.1,11.7,0000.0,0004.21,0001.43,0001.13
2023-12-21 23:41:00,SystemResetWarning,0832.3,5.00,000.00,025.6,024.8,000.0,033.7,027.1,11.7,0000.0,0003.83,0001.30,0001.02
2023-12-21 23:42:00,SystemResetWarning,0832.3,5.00,000.00,025.7,024.8,000.0,033.7,027.2,11.7,0000.0,0003.64,0001.19,0000.94
2023-12-21 23:43:00,SystemResetWarning,0832.3,5.00,000.00,025.7,024.9,000.0,033.8,027.2,11.6,0000.0,0001.96,0001.09,0000.86
2023-12-21 23:44:00,SystemResetWarning,0832.3,5.00,000.00,025.7,024.9,000.0,033.8,027.2,11.4,0000.0,0001.34,0000.97,0000.79
2023-12-21 23:45:00,SystemResetWarning,0832.4,5.00,000.00,025.7,025.0,000.0,033.8,027.3,11.4,0000.0,0001.21,0000.88,0000.74
2023-12-21 23:46:00,SystemResetWarning,0832.4,4.99,000.00,025.8,024.7,000.0,033.8,027.3,11.4,0000.0,0001.13,0000.86,0000.72
2023-12-21 23:47:00,SystemResetWarning,0832.4,4.99,000.00,025.7,022.9,000.0,033.8,027.2,11.4,0000.0,0001.17,0000.85,0000.72
2023-12-21 23:48:00,SystemResetWarning,0832.3,5.01,000.00,025.6,021.8,000.0,033.8,027.0,11.4,0000.0,0001.17,0000.84,0000.71
2023-12-21 23:49:00,SystemResetWarning,0832.3,5.01,000.00,025.5,021.9,000.0,033.8,026.5,11.5,0000.0,0001.15,0000.83,0000.71
2023-12-21 23:50:00,SystemResetWarning,0832.3,4.99,000.00,025.4,022.3,000.0,033.7,026.3,11.6,0000.0,0001.19,0000.85,0000.72
2023-12-21 23:51:00,SystemResetWarning,0832.3,5.00,000.00,025.3,022.7,000.0,033.7,026.4,11.7,0000.0,0001.21,0000.85,0000.72
2023-12-21 23:52:00,SystemResetWarning,0832.3,5.00,000.00,025.3,023.0,000.0,033.6,026.5,11.8,0000.0,0001.18,0000.84,0000.71
2023-12-21 23:53:00,SystemResetWarning,0832.4,5.00,000.00,025.3,023.3,000.0,033.6,026.6,11.8,0000.0,0001.15,0000.83,0000.71
2023-12-21 23:54:00,SystemResetWarning,0832.5,4.99,000.00,025.3,023.6,000.0,033.6,026.6,11.7,0000.0,0001.16,0000.83,0000.71
2023-12-21 23:55:00,SystemResetWarning,0832.5,5.00,000.00,025.3,023.8,000.0,033.6,026.6,11.7,0000.0,0001.17,0000.83,0000.71
2023-12-21 23:56:00,SystemResetWarning,0832.5,5.00,000.00,025.3,023.9,000.0,033.6,026.7,11.7,0000.0,0001.13,0000.82,0000.70
2023-12-21 23:57:00,SystemResetWarning,0832.5,5.00,000.00,025.3,024.1,000.0,033.6,026.7,11.7,0000.0,0001.11,0000.82,0000.71
2023-12-21 23:58:00,SystemResetWarning,0832.5,5.00,000.00,025.3,024.2,000.0,033.6,026.7,11.7,0000.0,0001.07,0000.81,0000.71
2023-12-21 23:59:00,SystemResetWarning,0832.5,5.01,000.00,025.3,024.3,000.0,033.6,026.8,11.7,0000.0,0001.05,0000.81,0000.71
